Location: Unspecified
(0.0000°N, 0.0000°E)
Time: 00:02:12
(UTC+00:00)

Vanguard 2 - Visible Passes

Search period start: 26 January 2021 00:00
Search period end: 05 February 2021 00:00
Orbit: 553 x 2937 km, 32.9° (Epoch: 25 January)

Date Brightness Start Highest point End Pass type
(mag) Time Alt. Az. Time Alt. Az. Time Alt. Az.
26 Jan 10.9 01:52:01 36° S 01:52:01 36° S 02:04:21 10° SE visible
26 Jan 11.6 03:53:38 10° SW 04:04:38 20° SSW 04:16:02 10° SSE visible
27 Jan 11.6 00:06:58 17° SE 00:06:58 17° SE 00:09:42 10° SE visible
27 Jan 11.0 02:08:20 31° SSW 02:08:20 31° SSW 02:21:59 10° SSE visible
27 Jan 11.7 04:14:19 10° SW 04:24:20 17° S 04:34:23 10° SSE visible
28 Jan 11.4 00:23:15 20° SE 00:23:15 20° SE 00:27:34 10° SE visible
28 Jan 11.1 02:24:37 25° SSW 02:26:24 25° SSW 02:39:41 10° SSE visible
28 Jan 11.8 04:34:47 10° SW 04:44:12 16° S 04:53:25 10° SSE visible
29 Jan 11.3 00:39:32 23° SSE 00:39:32 23° SSE 00:45:17 10° SE visible
29 Jan 11.3 02:40:53 18° SW 02:45:44 21° SSW 02:57:33 10° SSE visible
29 Jan 11.8 04:54:34 10° SSW 05:04:07 16° S 05:13:12 10° SE visible
30 Jan 11.3 00:55:48 24° SSE 00:55:48 24° SSE 01:02:54 10° SSE visible
30 Jan 11.5 02:57:09 12° SW 03:05:20 18° S 03:15:47 10° SSE visible
30 Jan 11.9 05:13:31 10° SSW 05:23:56 18° S 05:33:32 10° SE visible
31 Jan 11.3 01:12:03 23° S 01:12:03 23° S 01:20:30 10° SSE visible
31 Jan 11.7 03:16:13 10° SW 03:25:07 16° S 03:34:39 10° SSE visible
31 Jan 11.9 05:31:49 10° SSW 05:43:34 20° SSE 05:53:58 10° ESE visible
01 Feb 11.3 01:28:20 20° S 01:28:20 20° S 01:38:12 10° SSE visible
01 Feb 11.8 03:36:03 10° SSW 03:45:01 16° S 03:54:20 10° SE visible
01 Feb 11.9 05:49:44 10° SSW 06:02:56 25° SSE 06:14:09 10° ESE visible
01 Feb 9.5 19:10:24 10° NNE 19:12:12 13° NE 19:12:12 13° NE visible
01 Feb 11.7 23:43:16 11° SSE 23:43:16 11° SSE 23:43:38 10° SE visible
02 Feb 11.4 01:44:38 16° SSW 01:46:44 17° S 01:56:10 10° SSE visible
02 Feb 11.8 03:55:08 10° SSW 04:04:53 17° S 04:14:46 10° SE visible
02 Feb 8.9 19:26:25 10° N 19:29:44 22° NNE 19:29:44 22° NNE visible
02 Feb 11.6 23:59:36 13° SSE 23:59:36 13° SSE 00:01:06 10° SSE visible
03 Feb 11.5 02:00:57 12° SSW 02:06:21 15° S 02:14:39 10° SSE visible
03 Feb 11.8 04:13:32 10° SSW 04:24:35 19° SSE 04:35:31 10° SE visible
03 Feb 8.3 19:43:20 10° NNW 19:47:23 36° NNE 19:47:23 36° NNE visible
04 Feb 11.6 00:15:58 14° SSE 00:15:58 14° SSE 00:18:31 10° SSE visible
04 Feb 11.6 02:19:00 10° SSW 02:26:06 14° S 02:34:02 10° SSE visible
04 Feb 11.8 04:31:28 10° SSW 04:44:04 23° SSE 04:56:08 10° ESE visible
04 Feb 7.8 20:00:41 10° NW 20:05:07 62° NNE 20:05:07 62° NNE visible
